Data start date =,1/1/1959
Data end date/time =,5/7/2024 12:00
""
""
Date/Time,LockDam_03
,Flow
UTC,cfs
,Ave
1/2/1959 12:00,5000
1/3/1959 12:00,5000
1/4/1959 12:00,5000
1/5/1959 12:00,5000
1/6/1959 12:00,5000
1/7/1959 12:00,4900
1/8/1959 12:00,4900
1/9/1959 12:00,4800
1/10/1959 12:00,4600
1/11/1959 12:00,4400
1/12/1959 12:00,4400
1/13/1959 12:00,4400
1/14/1959 12:00,4300
1/15/1959 12:00,4200
1/16/1959 12:00,4200
1/17/1959 12:00,4200
1/18/1959 12:00,4300
1/19/1959 12:00,4300
1/20/1959 12:00,4300
1/21/1959 12:00,4300
1/22/1959 12:00,4300
1/23/1959 12:00,4300
1/24/1959 12:00,4300
1/25/1959 12:00,4300
1/26/1959 12:00,4300
1/27/1959 12:00,4300
1/28/1959 12:00,4300
1/29/1959 12:00,4300
1/30/1959 12:00,4200
1/31/1959 12:00,4100
2/1/1959 12:00,4100
2/2/1959 12:00,4100
2/3/1959 12:00,4100
2/4/1959 12:00,4200
2/5/1959 12:00,4200
2/6/1959 12:00,4100
2/7/1959 12:00,4100
2/8/1959 12:00,4100
2/9/1959 12:00,4100
2/10/1959 12:00,4200
2/11/1959 12:00,4200
2/12/1959 12:00,4200
2/13/1959 12:00,4300
2/14/1959 12:00,4300
2/15/1959 12:00,4400
2/16/1959 12:00,4400
2/17/1959 12:00,4400
2/18/1959 12:00,4400
2/19/1959 12:00,4500
2/20/1959 12:00,4600
2/21/1959 12:00,4600
2/22/1959 12:00,4500
2/23/1959 12:00,4500
2/24/1959 12:00,4400
2/25/1959 12:00,4400
2/26/1959 12:00,4600
2/27/1959 12:00,4800
2/28/1959 12:00,4800
3/1/1959 12:00,4000
3/2/1959 12:00,4500
3/3/1959 12:00,5200
3/4/1959 12:00,4700
3/5/1959 12:00,4900
3/6/1959 12:00,4700
3/7/1959 12:00,4400
3/8/1959 12:00,4500
3/9/1959 12:00,4700
3/10/1959 12:00,4700
3/11/1959 12:00,5100
3/12/1959 12:00,5400
3/13/1959 12:00,5300
3/14/1959 12:00,6200
3/15/1959 12:00,6100
3/16/1959 12:00,5400
3/17/1959 12:00,4900
3/18/1959 12:00,6000
3/19/1959 12:00,6900
3/20/1959 12:00,7000
3/21/1959 12:00,6800
3/22/1959 12:00,6800
3/23/1959 12:00,7600
3/24/1959 12:00,8100
3/25/1959 12:00,7900
3/26/1959 12:00,8000
3/27/1959 12:00,8000
3/28/1959 12:00,7900
3/29/1959 12:00,7600
3/30/1959 12:00,8700
3/31/1959 12:00,11600
4/1/1959 12:00,11800
4/2/1959 12:00,10900
4/3/1959 12:00,8800
4/4/1959 12:00,8000
4/5/1959 12:00,9100
4/6/1959 12:00,8300
4/7/1959 12:00,10000
4/8/1959 12:00,10000
4/9/1959 12:00,9900
4/10/1959 12:00,10300
4/11/1959 12:00,9800
4/12/1959 12:00,9300
4/13/1959 12:00,7900
4/14/1959 12:00,7000
4/15/1959 12:00,7700
4/16/1959 12:00,7300
4/17/1959 12:00,8200
4/18/1959 12:00,8500
4/19/1959 12:00,7900
4/20/1959 12:00,7000
4/21/1959 12:00,7000
4/22/1959 12:00,7400
4/23/1959 12:00,7900
4/24/1959 12:00,7400
4/25/1959 12:00,7600
4/26/1959 12:00,7400
4/27/1959 12:00,6700
4/28/1959 12:00,6800
4/29/1959 12:00,6100
4/30/1959 12:00,6500
5/1/1959 12:00,6400
5/2/1959 12:00,6700
5/3/1959 12:00,7600
5/4/1959 12:00,8200
5/5/1959 12:00,10800
5/6/1959 12:00,18000
5/7/1959 12:00,19300
5/8/1959 12:00,20500
5/9/1959 12:00,20100
5/10/1959 12:00,21700
5/11/1959 12:00,21700
5/12/1959 12:00,18200
5/13/1959 12:00,19300
5/14/1959 12:00,19500
5/15/1959 12:00,19200
5/16/1959 12:00,16500
5/17/1959 12:00,15200
5/18/1959 12:00,13700
5/19/1959 12:00,15200
5/20/1959 12:00,14400
5/21/1959 12:00,15200
5/22/1959 12:00,14300
5/23/1959 12:00,12000
5/24/1959 12:00,11700
5/25/1959 12:00,15400
5/26/1959 12:00,17100
5/27/1959 12:00,17100
5/28/1959 12:00,17800
5/29/1959 12:00,18200
5/30/1959 12:00,19200
5/31/1959 12:00,20000
6/1/1959 12:00,21100
6/2/1959 12:00,24500
6/3/1959 12:00,28800
6/4/1959 12:00,30000
6/5/1959 12:00,35000
6/6/1959 12:00,35000
6/7/1959 12:00,33000
6/8/1959 12:00,27500
6/9/1959 12:00,25400
6/10/1959 12:00,23000
6/11/1959 12:00,22500
6/12/1959 12:00,19800
6/13/1959 12:00,14700
6/14/1959 12:00,12500
6/15/1959 12:00,14900
6/16/1959 12:00,13900
6/17/1959 12:00,12400
6/18/1959 12:00,11000
6/19/1959 12:00,10200
6/20/1959 12:00,10300
6/21/1959 12:00,11200
6/22/1959 12:00,9900
6/23/1959 12:00,7700
6/24/1959 12:00,8500
6/25/1959 12:00,8700
6/26/1959 12:00,10100
6/27/1959 12:00,12600
6/28/1959 12:00,13900
6/29/1959 12:00,10400
6/30/1959 12:00,11000
7/1/1959 12:00,15500
7/2/1959 12:00,13000
7/3/1959 12:00,12100
7/4/1959 12:00,11000
7/5/1959 12:00,10400
7/6/1959 12:00,10300
7/7/1959 12:00,8900
7/8/1959 12:00,17100
7/9/1959 12:00,16200
7/10/1959 12:00,11500
7/11/1959 12:00,12600
7/12/1959 12:00,13300
7/13/1959 12:00,16200
7/14/1959 12:00,13300
7/15/1959 12:00,9400
7/16/1959 12:00,10400
7/17/1959 12:00,10300
7/18/1959 12:00,11100
7/19/1959 12:00,11200
7/20/1959 12:00,11300
7/21/1959 12:00,9200
7/22/1959 12:00,9100
7/23/1959 12:00,9100
7/24/1959 12:00,7400
7/25/1959 12:00,7200
7/26/1959 12:00,7900
7/27/1959 12:00,7900
7/28/1959 12:00,7200
7/29/1959 12:00,7000
7/30/1959 12:00,6000
7/31/1959 12:00,5300
8/1/1959 12:00,5000
8/2/1959 12:00,5000
8/3/1959 12:00,5100
8/4/1959 12:00,4600
8/5/1959 12:00,4600
8/6/1959 12:00,7300
8/7/1959 12:00,6000
8/8/1959 12:00,4900
8/9/1959 12:00,4000
8/10/1959 12:00,4200
8/11/1959 12:00,4700
8/12/1959 12:00,5000
8/13/1959 12:00,4600
8/14/1959 12:00,7200
8/15/1959 12:00,5400
8/16/1959 12:00,5100
8/17/1959 12:00,5200
8/18/1959 12:00,5200
8/19/1959 12:00,5800
8/20/1959 12:00,6500
8/21/1959 12:00,7000
8/22/1959 12:00,7300
8/23/1959 12:00,8400
8/24/1959 12:00,7200
8/25/1959 12:00,5800
8/26/1959 12:00,9700
8/27/1959 12:00,9500
8/28/1959 12:00,9300
8/29/1959 12:00,7800
8/30/1959 12:00,10700
8/31/1959 12:00,11000
9/1/1959 12:00,12400
9/2/1959 12:00,12600
9/3/1959 12:00,11200
9/4/1959 12:00,10900
9/5/1959 12:00,9800
9/6/1959 12:00,10300
9/7/1959 12:00,10200
9/8/1959 12:00,8600
9/9/1959 12:00,9100
9/10/1959 12:00,8900
9/11/1959 12:00,10000
9/12/1959 12:00,10600
9/13/1959 12:00,10600
9/14/1959 12:00,9200
9/15/1959 12:00,8200
9/16/1959 12:00,6800
9/17/1959 12:00,6600
9/18/1959 12:00,6300
9/19/1959 12:00,8200
9/20/1959 12:00,8300
9/21/1959 12:00,9000
9/22/1959 12:00,11200
9/23/1959 12:00,9900
9/24/1959 12:00,9400
9/25/1959 12:00,9300
9/26/1959 12:00,13700
9/27/1959 12:00,10700
9/28/1959 12:00,11200
9/29/1959 12:00,10500
9/30/1959 12:00,9700
10/1/1959 12:00,9100
10/2/1959 12:00,11400
10/3/1959 12:00,11600
10/4/1959 12:00,10600
10/5/1959 12:00,9400
10/6/1959 12:00,9900
10/7/1959 12:00,9800
10/8/1959 12:00,12200
10/9/1959 12:00,10400
10/10/1959 12:00,10300
10/11/1959 12:00,10000
10/12/1959 12:00,9200
10/13/1959 12:00,9900
10/14/1959 12:00,9900
10/15/1959 12:00,9900
10/16/1959 12:00,9500
10/17/1959 12:00,9300
10/18/1959 12:00,9300
10/19/1959 12:00,9000
10/20/1959 12:00,8400
10/21/1959 12:00,8200
10/22/1959 12:00,8700
10/23/1959 12:00,10500
10/24/1959 12:00,11500
10/25/1959 12:00,9200
10/26/1959 12:00,8900
10/27/1959 12:00,9600
10/28/1959 12:00,9400
10/29/1959 12:00,9600
10/30/1959 12:00,10100
10/31/1959 12:00,10200
11/1/1959 12:00,10300
11/2/1959 12:00,9700
11/3/1959 12:00,11200
11/4/1959 12:00,13100
11/5/1959 12:00,11400
11/6/1959 12:00,9500
11/7/1959 12:00,9400
11/8/1959 12:00,8200
11/9/1959 12:00,8100
11/10/1959 12:00,9000
11/11/1959 12:00,9000
11/12/1959 12:00,8900
11/13/1959 12:00,7900
11/14/1959 12:00,4900
11/15/1959 12:00,4600
11/16/1959 12:00,4800
11/17/1959 12:00,5700
11/18/1959 12:00,4500
11/19/1959 12:00,6600
11/20/1959 12:00,7500
11/21/1959 12:00,8700
11/22/1959 12:00,8700
11/23/1959 12:00,8900
11/24/1959 12:00,9100
11/25/1959 12:00,8800
11/26/1959 12:00,8200
11/27/1959 12:00,6800
11/28/1959 12:00,6300
11/29/1959 12:00,6400
11/30/1959 12:00,6700
12/1/1959 12:00,7200
12/2/1959 12:00,8100
12/3/1959 12:00,8100
12/4/1959 12:00,8000
12/5/1959 12:00,8000
12/6/1959 12:00,7700
12/7/1959 12:00,6300
12/8/1959 12:00,6600
12/9/1959 12:00,7100
12/10/1959 12:00,6900
12/11/1959 12:00,6600
12/12/1959 12:00,7000
12/13/1959 12:00,7200
12/14/1959 12:00,7100
12/15/1959 12:00,7000
12/16/1959 12:00,7200
12/17/1959 12:00,7600
12/18/1959 12:00,7600
12/19/1959 12:00,7100
12/20/1959 12:00,6900
12/21/1959 12:00,6800
12/22/1959 12:00,6800
12/23/1959 12:00,6900
12/24/1959 12:00,6700
12/25/1959 12:00,6600
12/26/1959 12:00,6700
12/27/1959 12:00,7100
12/28/1959 12:00,11800
12/29/1959 12:00,12700
12/30/1959 12:00,11000
12/31/1959 12:00,11000
1/1/1960 12:00,10500
1/2/1960 12:00,10500
1/3/1960 12:00,9800
1/4/1960 12:00,5900
1/5/1960 12:00,7000
1/6/1960 12:00,8400
1/7/1960 12:00,8500
1/8/1960 12:00,9300
1/9/1960 12:00,9200
1/10/1960 12:00,9200
1/11/1960 12:00,9000
1/12/1960 12:00,9500
1/13/1960 12:00,9900
1/14/1960 12:00,9800
1/15/1960 12:00,9000
1/16/1960 12:00,8000
1/17/1960 12:00,8000
1/18/1960 12:00,8800
1/19/1960 12:00,7300
1/20/1960 12:00,7300
1/21/1960 12:00,7400
1/22/1960 12:00,7300
1/23/1960 12:00,7100
1/24/1960 12:00,6700
1/25/1960 12:00,6800
1/26/1960 12:00,6700
1/27/1960 12:00,6800
1/28/1960 12:00,6800
1/29/1960 12:00,6700
1/30/1960 12:00,6700
1/31/1960 12:00,6700
2/1/1960 12:00,6700
2/2/1960 12:00,6000
2/3/1960 12:00,6200
2/4/1960 12:00,6400
2/5/1960 12:00,7200
2/6/1960 12:00,7800
2/7/1960 12:00,7000
2/8/1960 12:00,6900
2/9/1960 12:00,6400
2/10/1960 12:00,6300
2/11/1960 12:00,5600
2/12/1960 12:00,5100
2/13/1960 12:00,5300
2/14/1960 12:00,5600
2/15/1960 12:00,6200
2/16/1960 12:00,6300
2/17/1960 12:00,6200
2/18/1960 12:00,6100
2/19/1960 12:00,6000
2/20/1960 12:00,6000
2/21/1960 12:00,6000
2/22/1960 12:00,6100
2/23/1960 12:00,6100
2/24/1960 12:00,6200
2/25/1960 12:00,6200
2/26/1960 12:00,5600
2/27/1960 12:00,5300
2/28/1960 12:00,5400
2/29/1960 12:00,5400
3/1/1960 12:00,5500
3/2/1960 12:00,5600
3/3/1960 12:00,5600
3/4/1960 12:00,5400
3/5/1960 12:00,5500
3/6/1960 12:00,5500
3/7/1960 12:00,5500
3/8/1960 12:00,5500
3/9/1960 12:00,5500
3/10/1960 12:00,6000
3/11/1960 12:00,5900
3/12/1960 12:00,5800
3/13/1960 12:00,4600
3/14/1960 12:00,5600
3/15/1960 12:00,5700
3/16/1960 12:00,5200
3/17/1960 12:00,5300
3/18/1960 12:00,5400
3/19/1960 12:00,5400
3/20/1960 12:00,5700
3/21/1960 12:00,5800
3/22/1960 12:00,5600
3/23/1960 12:00,5700
3/24/1960 12:00,5800
3/25/1960 12:00,5900
3/26/1960 12:00,6700
3/27/1960 12:00,8100
3/28/1960 12:00,8700
3/29/1960 12:00,17500
3/30/1960 12:00,22300
3/31/1960 12:00,26300
4/1/1960 12:00,28000
4/2/1960 12:00,29000
4/3/1960 12:00,31000
4/4/1960 12:00,39000
4/5/1960 12:00,42000
4/6/1960 12:00,43500
4/7/1960 12:00,44000
4/8/1960 12:00,45500
4/9/1960 12:00,45500
4/10/1960 12:00,45200
4/11/1960 12:00,44000
4/12/1960 12:00,43000
4/13/1960 12:00,42000
4/14/1960 12:00,40500
4/15/1960 12:00,40300
4/16/1960 12:00,41000
4/17/1960 12:00,42000
4/18/1960 12:00,42000
4/19/1960 12:00,42000
4/20/1960 12:00,41000
4/21/1960 12:00,40000
4/22/1960 12:00,39500
4/23/1960 12:00,37500
4/24/1960 12:00,35000
4/25/1960 12:00,35500
4/26/1960 12:00,36500
4/27/1960 12:00,38000
4/28/1960 12:00,39500
4/29/1960 12:00,40700
4/30/1960 12:00,41000
5/1/1960 12:00,41000
5/2/1960 12:00,41000
5/3/1960 12:00,40500
5/4/1960 12:00,39000
5/5/1960 12:00,37500
5/6/1960 12:00,36000
5/7/1960 12:00,36000
5/8/1960 12:00,34000
5/9/1960 12:00,34500
5/10/1960 12:00,33400
5/11/1960 12:00,32000
5/12/1960 12:00,30000
5/13/1960 12:00,28000
5/14/1960 12:00,26000
5/15/1960 12:00,23000
5/16/1960 12:00,23800
5/17/1960 12:00,22100
5/18/1960 12:00,22100
5/19/1960 12:00,22300
5/20/1960 12:00,24000
5/21/1960 12:00,27500
5/22/1960 12:00,30600
5/23/1960 12:00,33000
5/24/1960 12:00,38000
5/25/1960 12:00,42000
5/26/1960 12:00,45000
5/27/1960 12:00,49000
5/28/1960 12:00,50000
5/29/1960 12:00,52500
5/30/1960 12:00,51500
5/31/1960 12:00,52000
6/1/1960 12:00,50000
6/2/1960 12:00,47500
6/3/1960 12:00,46500
6/4/1960 12:00,43500
6/5/1960 12:00,40500
6/6/1960 12:00,37500
6/7/1960 12:00,36000
6/8/1960 12:00,32500
6/9/1960 12:00,26800
6/10/1960 12:00,25000
6/11/1960 12:00,23000
6/12/1960 12:00,20900
6/13/1960 12:00,18900
6/14/1960 12:00,17800
6/15/1960 12:00,16900
6/16/1960 12:00,18700
6/17/1960 12:00,17200
6/18/1960 12:00,15200
6/19/1960 12:00,13700
6/20/1960 12:00,9800
6/21/1960 12:00,15800
6/22/1960 12:00,13300
6/23/1960 12:00,15800
6/24/1960 12:00,17700
6/25/1960 12:00,15500
6/26/1960 12:00,14500
6/27/1960 12:00,18200
6/28/1960 12:00,22100
6/29/1960 12:00,20300
6/30/1960 12:00,17400
7/1/1960 12:00,16600
7/2/1960 12:00,14800
7/3/1960 12:00,15400
7/4/1960 12:00,17100
7/5/1960 12:00,15900
7/6/1960 12:00,12200
7/7/1960 12:00,13400
7/8/1960 12:00,13500
7/9/1960 12:00,11500
7/10/1960 12:00,12500
7/11/1960 12:00,10800
7/12/1960 12:00,10400
7/13/1960 12:00,11700
7/14/1960 12:00,10900
7/15/1960 12:00,11900
7/16/1960 12:00,12800
7/17/1960 12:00,12800
7/18/1960 12:00,12300
7/19/1960 12:00,12100
7/20/1960 12:00,12700
7/21/1960 12:00,8100
7/22/1960 12:00,7600
7/23/1960 12:00,7600
7/24/1960 12:00,7600
7/25/1960 12:00,9000
7/26/1960 12:00,9100
7/27/1960 12:00,5500
7/28/1960 12:00,6500
7/29/1960 12:00,8200
7/30/1960 12:00,6500
7/31/1960 12:00,5700
8/1/1960 12:00,5000
8/2/1960 12:00,5500
8/3/1960 12:00,6000
8/4/1960 12:00,5900
8/5/1960 12:00,5200
8/6/1960 12:00,5600
8/7/1960 12:00,5700
8/8/1960 12:00,5600
8/9/1960 12:00,5300
8/10/1960 12:00,4100
8/11/1960 12:00,4100
8/12/1960 12:00,5800
8/13/1960 12:00,5800
8/14/1960 12:00,5500
8/15/1960 12:00,3800
8/16/1960 12:00,4900
8/17/1960 12:00,5000
8/18/1960 12:00,5100
8/19/1960 12:00,5100
8/20/1960 12:00,5100
8/21/1960 12:00,5100
8/22/1960 12:00,4800
8/23/1960 12:00,4600
8/24/1960 12:00,4100
8/25/1960 12:00,4500
8/26/1960 12:00,6700
8/27/1960 12:00,8100
8/28/1960 12:00,15500
8/29/1960 12:00,16300
8/30/1960 12:00,13800
8/31/1960 12:00,12100
9/1/1960 12:00,13300
9/2/1960 12:00,14800
9/3/1960 12:00,14500
9/4/1960 12:00,13100
9/5/1960 12:00,10800
9/6/1960 12:00,11000
9/7/1960 12:00,12600
9/8/1960 12:00,15800
9/9/1960 12:00,11300
9/10/1960 12:00,10600
9/11/1960 12:00,10700
9/12/1960 12:00,9000
9/13/1960 12:00,8200
9/14/1960 12:00,8000
9/15/1960 12:00,8800
9/16/1960 12:00,8800
9/17/1960 12:00,8800
9/18/1960 12:00,8900
9/19/1960 12:00,8700
9/20/1960 12:00,7900
9/21/1960 12:00,8500
9/22/1960 12:00,8300
9/23/1960 12:00,8300
9/24/1960 12:00,10500
9/25/1960 12:00,10200
9/26/1960 12:00,8300
9/27/1960 12:00,10500
9/28/1960 12:00,9600
9/29/1960 12:00,9600
9/30/1960 12:00,9500
10/1/1960 12:00,10000
10/2/1960 12:00,10600
10/3/1960 12:00,9100
10/4/1960 12:00,8300
10/5/1960 12:00,8300
10/6/1960 12:00,7600
10/7/1960 12:00,7600
10/8/1960 12:00,7600
10/9/1960 12:00,7600
10/10/1960 12:00,4400
10/11/1960 12:00,7100
10/12/1960 12:00,6900
10/13/1960 12:00,6700
10/14/1960 12:00,6800
10/15/1960 12:00,6800
10/16/1960 12:00,6900
10/17/1960 12:00,6900
10/18/1960 12:00,7100
10/19/1960 12:00,6900
10/20/1960 12:00,6300
10/21/1960 12:00,6100
10/22/1960 12:00,5900
10/23/1960 12:00,6000
10/24/1960 12:00,5600
10/25/1960 12:00,5300
10/26/1960 12:00,6700
10/27/1960 12:00,6600
10/28/1960 12:00,6500
10/29/1960 12:00,7400
10/30/1960 12:00,7500
10/31/1960 12:00,7900
11/1/1960 12:00,7600
11/2/1960 12:00,6000
11/3/1960 12:00,6200
11/4/1960 12:00,7500
11/5/1960 12:00,7500
11/6/1960 12:00,7600
11/7/1960 12:00,6600
11/8/1960 12:00,6800
11/9/1960 12:00,6100
11/10/1960 12:00,6200
11/11/1960 12:00,7200
11/12/1960 12:00,9200
11/13/1960 12:00,7500
11/14/1960 12:00,6000
11/15/1960 12:00,6100
11/16/1960 12:00,6900
11/17/1960 12:00,7600
11/18/1960 12:00,7500
11/19/1960 12:00,7100
11/20/1960 12:00,7100
11/21/1960 12:00,7100
11/22/1960 12:00,6800
11/23/1960 12:00,5800
11/24/1960 12:00,6400
11/25/1960 12:00,7300
11/26/1960 12:00,7200
11/27/1960 12:00,7100
11/28/1960 12:00,7500
11/29/1960 12:00,8900
11/30/1960 12:00,7100
12/1/1960 12:00,4900
12/2/1960 12:00,4900
12/3/1960 12:00,5400
12/4/1960 12:00,5200
12/5/1960 12:00,7600
12/6/1960 12:00,7600
12/7/1960 12:00,6500
12/8/1960 12:00,5900
12/9/1960 12:00,6100
12/10/1960 12:00,6100
12/11/1960 12:00,7000
12/12/1960 12:00,6900
12/13/1960 12:00,7000
12/14/1960 12:00,7300
12/15/1960 12:00,7400
12/16/1960 12:00,7200
12/17/1960 12:00,7200
12/18/1960 12:00,7100
12/19/1960 12:00,6200
12/20/1960 12:00,6100
12/21/1960 12:00,5400
12/22/1960 12:00,4900
12/23/1960 12:00,4200
12/24/1960 12:00,4500
12/25/1960 12:00,4600
12/26/1960 12:00,4600
12/27/1960 12:00,4500
12/28/1960 12:00,4600
12/29/1960 12:00,4600
12/30/1960 12:00,4600
12/31/1960 12:00,4600
1/1/1961 12:00,5000
1/2/1961 12:00,5000
1/3/1961 12:00,5000
1/4/1961 12:00,5000
1/5/1961 12:00,5000
1/6/1961 12:00,5100
1/7/1961 12:00,4900
1/8/1961 12:00,4900
1/9/1961 12:00,4900
1/10/1961 12:00,5000
1/11/1961 12:00,4900
1/12/1961 12:00,4900
1/13/1961 12:00,5000
1/14/1961 12:00,5100
1/15/1961 12:00,5300
1/16/1961 12:00,5500
1/17/1961 12:00,5500
1/18/1961 12:00,5600
1/19/1961 12:00,5400
1/20/1961 12:00,5200
1/21/1961 12:00,5000
1/22/1961 12:00,4900
1/23/1961 12:00,4400
1/24/1961 12:00,4200
1/25/1961 12:00,4200
1/26/1961 12:00,4100
1/27/1961 12:00,4200
1/28/1961 12:00,4100
1/29/1961 12:00,4100
1/30/1961 12:00,4100
1/31/1961 12:00,4100
2/1/1961 12:00,4100
2/2/1961 12:00,4000
2/3/1961 12:00,4100
2/4/1961 12:00,4100
2/5/1961 12:00,4100
2/6/1961 12:00,4200
2/7/1961 12:00,4200
2/8/1961 12:00,4200
2/9/1961 12:00,4200
2/10/1961 12:00,4200
2/11/1961 12:00,4200
2/12/1961 12:00,4300
2/13/1961 12:00,4400
2/14/1961 12:00,4400
2/15/1961 12:00,4500
2/16/1961 12:00,5500
2/17/1961 12:00,5200
2/18/1961 12:00,5200
2/19/1961 12:00,5200
2/20/1961 12:00,5200
2/21/1961 12:00,5300
2/22/1961 12:00,6100
2/23/1961 12:00,6300
2/24/1961 12:00,5500
2/25/1961 12:00,4800
2/26/1961 12:00,4900
2/27/1961 12:00,5000
2/28/1961 12:00,5200
3/1/1961 12:00,5800
3/2/1961 12:00,6800
3/3/1961 12:00,7200
3/4/1961 12:00,7900
3/5/1961 12:00,7700
3/6/1961 12:00,7500
3/7/1961 12:00,7400
3/8/1961 12:00,7600
3/9/1961 12:00,7300
3/10/1961 12:00,8400
3/11/1961 12:00,8700
3/12/1961 12:00,8200
3/13/1961 12:00,6900
3/14/1961 12:00,7300
3/15/1961 12:00,7400
3/16/1961 12:00,7500
3/17/1961 12:00,8900
3/18/1961 12:00,8500
3/19/1961 12:00,9300
3/20/1961 12:00,9700
3/21/1961 12:00,12400
3/22/1961 12:00,14200
3/23/1961 12:00,11200
3/24/1961 12:00,11000
3/25/1961 12:00,17800
3/26/1961 12:00,18000
3/27/1961 12:00,20500
3/28/1961 12:00,23000
3/29/1961 12:00,25300
3/30/1961 12:00,29000
3/31/1961 12:00,32000
4/1/1961 12:00,30000
4/2/1961 12:00,29000
4/3/1961 12:00,28000
4/4/1961 12:00,24500
4/5/1961 12:00,23600
4/6/1961 12:00,21600
4/7/1961 12:00,16100
4/8/1961 12:00,16000
4/9/1961 12:00,16300
4/10/1961 12:00,19500
4/11/1961 12:00,13200
4/12/1961 12:00,14800
4/13/1961 12:00,12100
4/14/1961 12:00,14500
4/15/1961 12:00,16100
4/16/1961 12:00,12300
4/17/1961 12:00,16200
4/18/1961 12:00,18300
4/19/1961 12:00,15800
4/20/1961 12:00,17100
4/21/1961 12:00,20300
4/22/1961 12:00,21700
4/23/1961 12:00,23400
4/24/1961 12:00,25900
4/25/1961 12:00,27000
4/26/1961 12:00,28000
4/27/1961 12:00,27000
4/28/1961 12:00,23600
4/29/1961 12:00,22800
4/30/1961 12:00,22100
5/1/1961 12:00,21300
5/2/1961 12:00,20000
5/3/1961 12:00,18700
5/4/1961 12:00,16300
5/5/1961 12:00,16000
5/6/1961 12:00,17600
5/7/1961 12:00,16000
5/8/1961 12:00,16600
5/9/1961 12:00,16200
5/10/1961 12:00,17400
5/11/1961 12:00,18900
5/12/1961 12:00,17700
5/13/1961 12:00,18200
5/14/1961 12:00,19800
5/15/1961 12:00,22600
5/16/1961 12:00,25500
5/17/1961 12:00,30000
5/18/1961 12:00,37000
5/19/1961 12:00,44000
5/20/1961 12:00,45000
5/21/1961 12:00,45000
5/22/1961 12:00,44000
5/23/1961 12:00,44000
5/24/1961 12:00,42000
5/25/1961 12:00,42000
5/26/1961 12:00,39000
5/27/1961 12:00,34000
5/28/1961 12:00,31000
5/29/1961 12:00,29000
5/30/1961 12:00,24000
5/31/1961 12:00,22500
6/1/1961 12:00,19700
6/2/1961 12:00,19200
6/3/1961 12:00,19600
6/4/1961 12:00,17500
6/5/1961 12:00,15300
6/6/1961 12:00,12800
6/7/1961 12:00,12200
6/8/1961 12:00,13300
6/9/1961 12:00,12500
6/10/1961 12:00,11200
6/11/1961 12:00,12500
6/12/1961 12:00,13100
6/13/1961 12:00,13100
6/14/1961 12:00,10500
6/15/1961 12:00,9600
6/16/1961 12:00,10400
6/17/1961 12:00,9900
6/18/1961 12:00,9900
6/19/1961 12:00,10400
6/20/1961 12:00,9500
6/21/1961 12:00,8500
6/22/1961 12:00,10400
6/23/1961 12:00,9200
6/24/1961 12:00,9200
6/25/1961 12:00,9200
6/26/1961 12:00,8300
6/27/1961 12:00,8100
6/28/1961 12:00,7700
6/29/1961 12:00,7400
6/30/1961 12:00,7000
7/1/1961 12:00,7200
7/2/1961 12:00,7800
7/3/1961 12:00,7000
7/4/1961 12:00,6300
7/5/1961 12:00,6300
7/6/1961 12:00,6500
7/7/1961 12:00,6500
7/8/1961 12:00,5500
7/9/1961 12:00,3900
7/10/1961 12:00,4500
7/11/1961 12:00,4500
7/12/1961 12:00,5500
7/13/1961 12:00,5900
7/14/1961 12:00,5800
7/15/1961 12:00,5700
7/16/1961 12:00,5800
7/17/1961 12:00,5700
7/18/1961 12:00,5900
7/19/1961 12:00,6300
7/20/1961 12:00,6200
7/21/1961 12:00,6300
7/22/1961 12:00,7700
7/23/1961 12:00,9000
7/24/1961 12:00,10200
7/25/1961 12:00,9600
7/26/1961 12:00,8700
7/27/1961 12:00,8800
7/28/1961 12:00,7800
7/29/1961 12:00,6700
7/30/1961 12:00,6300
7/31/1961 12:00,8000
8/1/1961 12:00,7800
8/2/1961 12:00,7500
8/3/1961 12:00,10000
8/4/1961 12:00,10000
8/5/1961 12:00,10000
8/6/1961 12:00,8500
8/7/1961 12:00,7300
8/8/1961 12:00,7200
8/9/1961 12:00,7300
8/10/1961 12:00,8100
8/11/1961 12:00,7800
8/12/1961 12:00,6500
8/13/1961 12:00,6400
8/14/1961 12:00,5500
8/15/1961 12:00,4500
8/16/1961 12:00,4000
8/17/1961 12:00,4000
8/18/1961 12:00,6700
8/19/1961 12:00,7000
8/20/1961 12:00,5900
8/21/1961 12:00,5300
8/22/1961 12:00,4800
8/23/1961 12:00,4300
8/24/1961 12:00,4300
8/25/1961 12:00,4400
8/26/1961 12:00,4400
8/27/1961 12:00,5000
8/28/1961 12:00,5500
8/29/1961 12:00,5000
8/30/1961 12:00,4200
8/31/1961 12:00,3800
9/1/1961 12:00,3500
9/2/1961 12:00,3600
9/3/1961 12:00,3600
9/4/1961 12:00,3600
9/5/1961 12:00,3800
9/6/1961 12:00,5900
9/7/1961 12:00,4300
9/8/1961 12:00,5300
9/9/1961 12:00,5700
9/10/1961 12:00,6200
9/11/1961 12:00,4500
9/12/1961 12:00,5200
9/13/1961 12:00,8400
9/14/1961 12:00,5800
9/15/1961 12:00,4100
9/16/1961 12:00,6000
9/17/1961 12:00,6200
9/18/1961 12:00,6200
9/19/1961 12:00,4800
9/20/1961 12:00,6500
9/21/1961 12:00,7100
9/22/1961 12:00,7700
9/23/1961 12:00,6500
9/24/1961 12:00,5200
9/25/1961 12:00,5600
9/26/1961 12:00,5500
9/27/1961 12:00,6300
9/28/1961 12:00,4500
9/29/1961 12:00,5100
9/30/1961 12:00,7200
10/1/1961 12:00,6800
10/2/1961 12:00,4800
10/3/1961 12:00,5300
10/4/1961 12:00,6100
10/5/1961 12:00,5200
10/6/1961 12:00,5100
10/7/1961 12:00,5100
10/8/1961 12:00,5900
10/9/1961 12:00,6000
10/10/1961 12:00,5500
10/11/1961 12:00,8600
10/12/1961 12:00,7600
10/13/1961 12:00,7100
10/14/1961 12:00,6100
10/15/1961 12:00,5800
10/16/1961 12:00,5100
10/17/1961 12:00,6100
10/18/1961 12:00,7600
10/19/1961 12:00,7200
10/20/1961 12:00,7500
10/21/1961 12:00,6000
10/22/1961 12:00,5800
10/23/1961 12:00,6700
10/24/1961 12:00,5900
10/25/1961 12:00,6100
10/26/1961 12:00,6200
10/27/1961 12:00,6500
10/28/1961 12:00,9800
10/29/1961 12:00,9900
10/30/1961 12:00,7500
10/31/1961 12:00,7500
11/1/1961 12:00,6300
11/2/1961 12:00,11100
11/3/1961 12:00,9700
11/4/1961 12:00,9700
11/5/1961 12:00,11900
11/6/1961 12:00,12400
11/7/1961 12:00,11300
11/8/1961 12:00,9400
11/9/1961 12:00,8400
11/10/1961 12:00,8000
11/11/1961 12:00,8300
11/12/1961 12:00,10300
11/13/1961 12:00,8500
11/14/1961 12:00,7700
11/15/1961 12:00,8100
11/16/1961 12:00,7400
11/17/1961 12:00,6900
11/18/1961 12:00,6800
11/19/1961 12:00,5900
11/20/1961 12:00,6200
11/21/1961 12:00,7500
11/22/1961 12:00,8300
11/23/1961 12:00,7900
11/24/1961 12:00,6400
11/25/1961 12:00,6400
11/26/1961 12:00,6900
11/27/1961 12:00,7000
11/28/1961 12:00,6700
11/29/1961 12:00,7400
11/30/1961 12:00,7200
12/1/1961 12:00,7100
12/2/1961 12:00,7000
12/3/1961 12:00,7200
12/4/1961 12:00,7900
12/5/1961 12:00,6800
12/6/1961 12:00,7300
12/7/1961 12:00,6100
12/8/1961 12:00,4200
12/9/1961 12:00,4500